Olympia, WA
on Tuesday, February 19, 2013

Tuesday
Previous Day Next Day
Daily Summary
 ActualAverageRecord
Temperature
Mean Temperature °F 41°F  
Max Temperature 51°F 50°F 66°F (1977)
Min Temperature 33°F 33°F 13°F (2006)
Degree Days
Heating Degree Days 23 24  
Month to date heating degree days 444 457  
Since 1 July heating degree days 3482 3508  
Cooling Degree Days 0 0  
Month to date cooling degree days 0 0  
Year to date cooling degree days 0 0  
Moisture
Dew Point 37°F   
Average Humidity 76    
Maximum Humidity 100    
Minimum Humidity 52    
Precipitation
Precipitation T in 0.18 in 2.07 in (1991)
Month to date precipitation 0.65 3.67  
Year to date precipitation 4.56 11.51  
Wind
Wind Speed 4 mph   
Max Wind Speed 15 mph   
Max Gust Speed 19 mph   
Visibility 10 miles   
Events Rain   

Key: T is trace of precipitation, MM is missing value
Source: NWS Daily Summary
Time(PST)TemperatureDew PointHumidity Pressure Visibility Wind DirectionWind SpeedGust SpeedPrecipitationEvents Conditions
12:08 AM 39.9°F 36.0°F 86% 29.75 in 10.0 miles Calm Calm - 0.00 in Rain Light Rain
12:54 AM 39.9°F 37.0°F 89% 29.75 in 10.0 miles Calm Calm - 0.00 in   Overcast
1:08 AM 39.0°F 36.0°F 89% 29.74 in 10.0 miles Calm Calm - N/A   Overcast
1:50 AM 39.2°F 37.4°F 93% 29.73 in 10.0 miles Calm Calm - N/A   Overcast
1:54 AM 39.0°F 37.0°F 93% 29.74 in 10.0 miles Calm Calm - N/A   Overcast
2:49 AM 39.2°F 37.4°F 93% 29.73 in 10.0 miles East 3.5 mph - 0.00 in   Overcast
2:54 AM 39.0°F 37.0°F 93% 29.73 in 10.0 miles ENE 3.5 mph - 0.00 in   Overcast
3:54 AM 39.0°F 37.0°F 93% 29.74 in 10.0 miles NNW 3.5 mph - N/A   Overcast
4:49 AM 39.2°F 37.4°F 93% 29.74 in 10.0 miles NW 4.6 mph - N/A   Overcast
4:54 AM 39.0°F 37.0°F 93% 29.74 in 10.0 miles NW 3.5 mph - N/A   Overcast
5:54 AM 39.9°F 37.9°F 93% 29.76 in 10.0 miles Calm Calm - N/A   Overcast
6:04 AM 39.9°F 37.9°F 93% 29.76 in 10.0 miles Calm Calm - N/A   Overcast
6:54 AM 39.0°F 37.9°F 96% 29.77 in 10.0 miles Calm Calm - N/A   Overcast
7:06 AM 39.0°F 37.9°F 96% 29.77 in 10.0 miles Calm Calm - N/A   Overcast
7:38 AM 39.0°F 37.9°F 96% 29.78 in 9.0 miles Calm Calm - N/A   Overcast
7:54 AM 39.0°F 37.9°F 96% 29.78 in 8.0 miles Calm Calm - N/A   Overcast
8:54 AM 39.9°F 37.9°F 93% 29.81 in 8.0 miles North 3.5 mph - N/A   Overcast
10:54 AM - - N/A% 29.82 in 10.0 miles ENE 6.9 mph - N/A   Overcast
11:12 AM 46.4°F 37.4°F 71% 29.82 in 10.0 miles ENE 8.1 mph - N/A   Mostly Cloudy
11:20 AM 46.0°F 37.9°F 73% 29.82 in 10.0 miles NE 6.9 mph - N/A   Mostly Cloudy
11:54 AM 45.0°F 37.0°F 74% 29.83 in 10.0 miles ENE 4.6 mph - N/A   Mostly Cloudy
12:54 PM 48.9°F 36.0°F 61% 29.83 in 10.0 miles Variable 6.9 mph - N/A   Mostly Cloudy
1:54 PM 50.0°F 36.0°F 59% 29.85 in 10.0 miles NNE 11.5 mph - N/A   Partly Cloudy
2:54 PM 50.0°F 35.1°F 57% 29.85 in 10.0 miles NNE 5.8 mph - N/A   Scattered Clouds
4:54 PM 48.0°F 35.1°F 61% 29.88 in 10.0 miles North 13.8 mph - N/A   Overcast
5:54 PM 44.1°F 37.0°F 76% 29.90 in 10.0 miles NNW 5.8 mph - N/A   Overcast
6:54 PM 42.8°F 37.4°F 81% 29.92 in 10.0 miles NNW 3.5 mph - N/A   Overcast
7:54 PM 39.0°F 36.0°F 89% 29.94 in 10.0 miles Calm Calm - N/A   Mostly Cloudy
8:54 PM 37.9°F 36.0°F 93% 29.97 in 10.0 miles SE 3.5 mph - N/A   Overcast
9:54 PM 35.6°F 35.6°F 100% 29.98 in 10.0 miles Calm Calm - N/A   Overcast
10:54 PM 37.9°F 35.1°F 89% 30.00 in 9.0 miles Calm Calm - N/A   Mostly Cloudy
11:54 PM 33.1°F 33.1°F 100% 30.02 in 7.0 miles Calm Calm - N/A   Mostly Cloudy
Moon Phase
Feb. 19 Feb. 25 Mar. 04 Mar. 11 Mar. 19
Sunrise:07:08 AM (PST) Moon Rise:12:06 PM (PST)2/19
Sunset:05:42 PM (PST) Moon Set:02:57 AM (PST)2/19

Copyright © 2014 The Weather Underground, Inc.